Regional Weather Roundup
Issued by NWS

Home | Current Version | Previous Version | Graphics & Text | Print | Product List | Glossary On
Versions: 1 2 3 4 5 6 7 8 9 10 11 12 13 14 15 16 17 18 19 20 21 22 23 24 25 26 27 28 29 30 31 32 33 34 35 36 37 38 39 40 41 42 43 44 45 46 47 48 49 50
000
ASUS45 KABQ 031610
RWRNM
NEW MEXICO REGIONAL WEATHER ROUNDUP
NATIONAL WEATHER SERVICE ALBUQUERQUE NM
1000 AM MDT FRI JUL 03 2015

NOTE: "FAIR" MEANS FEW OR NO CLOUDS BELOW 12,000 FEET AGL WITH NO
       SIGNIFICANT WEATHER OR OBSTRUCTIONS TO VISION.

      THIS PRODUCT IS RELEASED AS TWO VERSIONS.  ONE VERSION NEAR
      THE TOP OF THE HOUR CONTAINING PRELIMINARY DATA FROM ALBUQUERQUE
      AND OTHER STATIONS.  A FINAL VERSION WITH ADDITIONAL DATA IS
      ISSUED ABOUT 10 MINUTES AFTER THE HOUR.

NMZ501-503-504-510>518-031700-
NORTHWEST PLATEAU/NORTHCENTRAL MOUNTAINS

CITY           SKY/WX    TMP DP  RH WIND       PRES   REMARKS
FARMINGTON     SUNNY     73  56  54 VRB3      30.20S
LOS ALAMOS     MOSUNNY   64  53  68 CALM      30.34S
SANTA FE       MOSUNNY   71  52  50 N8        30.27S
TAOS           PTSUNNY   64  46  52 CALM      30.33S
ANGEL FIRE     PTSUNNY   55  53  93 CALM      30.42S

$$
NMZ402-403-502-505>509-031700-
WESTCENTRAL MOUNTAINS/SOUTHWEST MOUNTAINS

CITY           SKY/WX    TMP DP  RH WIND       PRES   REMARKS
GALLUP         SUNNY     75  53  46 SW6       30.26F
GRANTS         SUNNY     71  58  61 S10       30.29S
SILVER CITY      N/A     75  59  57 NW12      30.20F

$$
NMZ407-409-411-412-031700-
SOUTHERN DESERTS

CITY           SKY/WX    TMP DP  RH WIND       PRES   REMARKS
LORDSBURG      FAIR      73  61  64 NW10G17   30.13F
DEMING         MOSUNNY   79  60  52 CALM      30.11F
LAS CRUCES     PTSUNNY   74  60  62 CALM      30.12S
HOLLOMAN AFB   MOSUNNY   78  62  57 N5        30.10S
ALAMOGORDO     PTSUNNY   79  57  47 SE6       30.12F
T OR C         MOSUNNY   76  60  57 E3        30.15F

$$
NMZ519>523-031700-
CENTRAL VALLEYS/CENTRAL HIGHLANDS

CITY           SKY/WX    TMP DP  RH WIND       PRES   REMARKS
ALBUQUERQUE    PTSUNNY   76  58  53 S8        30.21S
DOUBLE EAGLE   PTSUNNY   73  57  56 E6        30.25S
MORIARTY ARPT    N/A     69  54  58 SE8       30.29S
CLINES CORNERS MOSUNNY   67  55  65 SE10      30.32S
BELEN          FAIR      77  58  52 S3        30.20S
SOCORRO        FAIR      74  60  60 CALM      30.17F

$$
NMZ524>526-539-540-031700-
SOUTHCENTRAL MOUNTAINS

CITY           SKY/WX    TMP DP  RH WIND       PRES   REMARKS
RUIDOSO        NOT AVBL

$$
NMZ527>531-031700-
NORTHEAST HIGHLANDS/NORTHEAST PLAINS

CITY           SKY/WX    TMP DP  RH WIND       PRES   REMARKS
LAS VEGAS      PTSUNNY   67  57  70 N5        30.31S
RATON          MOSUNNY   71  58  63 VRB5      30.26F
CLAYTON        SUNNY     79  55  43 SW3       30.18F

$$
NMZ532>537-031700-
EASTCENTRAL PLAINS

CITY           SKY/WX    TMP DP  RH WIND       PRES   REMARKS
TUCUMCARI      PTSUNNY   78  62  57 VRB5      30.12S
CANNON AFB     CLOUDY    76  63  64 VRB3      30.11F
CLOVIS AIRPORT CLOUDY    73  63  68 N3          N/A

$$
NMZ028-029-538-031700-
SOUTHEAST PLAINS

CITY           SKY/WX    TMP DP  RH WIND       PRES   REMARKS
ROSWELL        PTSUNNY   79  64  60 N8        30.10S
ARTESIA        PTSUNNY   81  63  54 NW8G16    30.10S
CARLSBAD       MOSUNNY   82  63  52 NE6       30.06S
HOBBS          MOSUNNY   79  64  61 CALM      30.10S


$$



USA.gov is the U.S. government's official web portal to all federal, state and local government web resources and services.